Home > Weather > Achern > Past weeks

Flag for Germany Past Weather in Achern, Baden-Württemberg, Germany — Yesterday and Last 2 Weeks

Now
52 °F

Passing clouds.


Feels Like: 51 °F
Forecast: 50 / 73 °F
Wind: 3 mph from Northeast

Location: Karlsruhe - Baden Wurttemberg

Current Time: May 25, 2016 at 3:27:50 AM

Latest Report: May 24, 2016 at 11:50 PM


Visibility: N/A

Pressure: 30.01 "Hg

Humidity: 94%

Dew Point: 50 °F

Location of AchernLocation

Past Weather in Achern — Graph

°F

Achern Temperature Yesterday

Maximum temperature yesterday: 57 °F (at 3:50 PM)
Minimum temperature yesterday: 50 °F (at 7:20 AM)
Average temperature yesterday: 53 °F

High & Low Weather Summary for the Past Weeks

 TemperatureHumidityPressure
High81 °F (May 22, 3:50 PM)100% (May 10, 7:20 AM)30.18 "Hg (May 10, 7:20 AM)
Low43 °F (May 15, 4:20 AM)32% (May 22, 1:50 PM)29.47 "Hg (May 12, 4:50 AM)
Average57 °F79%29.89 "Hg
* Reported May 9 11:20 PM — May 24 11:50 PM, Achern, Weather by CustomWeather, © 2016

Note: Actual official high and low records may vary slightly from our data, if they occured in-between our weather recording intervals... More about our weather records

Advertising

Achern Weather History for the Previous 24 Hours

Scroll right to see more
 ConditionsComfort  
Time TempWeatherWind HumidityBarometerVisibility
11:50 PM
Tue, May 24
52 °FPassing clouds.3 mph94%30.01 "HgN/A
11:20 PM52 °FPassing clouds.3 mph94%29.98 "HgN/A
10:50 PM54 °FPassing clouds.6 mph88%29.98 "HgN/A
10:20 PM54 °FPartly cloudy.3 mph88%29.98 "HgN/A
9:50 PM54 °FPartly sunny.3 mph88%29.98 "HgN/A
9:20 PM54 °FPartly sunny.5 mph88%29.98 "HgN/A
8:50 PM54 °FBroken clouds.5 mph88%29.98 "HgN/A
8:20 PM54 °FBroken clouds.6 mph88%29.98 "HgN/A
7:50 PM55 °FPartly sunny.No wind82%29.98 "HgN/A
7:20 PM55 °FPartly sunny.No wind82%29.98 "HgN/A
6:50 PM55 °FBroken clouds.No wind82%29.98 "HgN/A
6:20 PM55 °FPartly sunny.1 mph82%29.98 "HgN/A
5:50 PM55 °FPartly sunny.2 mph82%29.98 "HgN/A
5:20 PM55 °FPartly sunny.2 mph82%29.98 "HgN/A
4:50 PM55 °FScattered showers. Broken clouds.5 mph82%29.98 "HgN/A
4:20 PM55 °FScattered showers. Broken clouds.5 mph82%29.98 "HgN/A
3:50 PM57 °FScattered showers. Broken clouds.5 mph77%30.01 "HgN/A
3:20 PM55 °FLight rain. Broken clouds.3 mph82%30.01 "HgN/A
2:50 PM55 °FBroken clouds.6 mph82%30.01 "HgN/A
2:20 PM55 °FBroken clouds.3 mph82%30.01 "HgN/A
1:50 PM55 °FPartly sunny.2 mph82%30.01 "Hg6 mi
1:20 PM54 °FOvercast.3 mph88%30.01 "Hg6 mi
12:50 PM54 °FOvercast.5 mph88%30.01 "Hg5 mi
12:20 PM54 °FLow clouds.5 mph88%30.01 "Hg6 mi
11:50 AM54 °FPartly sunny.3 mph88%30.01 "Hg5 mi
11:20 AM52 °FPartly sunny.5 mph94%30.01 "Hg5 mi
10:50 AM52 °FPartly sunny.5 mph94%30.01 "Hg5 mi
10:20 AM52 °FPartly sunny.5 mph94%30.01 "Hg5 mi
9:50 AM52 °FPartly sunny.5 mph94%30.01 "Hg5 mi
9:20 AM52 °FPartly sunny.5 mph94%30.01 "HgN/A
8:50 AM52 °FPartly sunny.7 mph94%30.01 "HgN/A
8:20 AM52 °FPartly sunny.6 mph94%30.01 "Hg6 mi
7:50 AM52 °FScattered clouds.7 mph94%29.98 "Hg6 mi
7:20 AM50 °FPartly sunny.7 mph100%30.01 "HgN/A
6:50 AM52 °FScattered clouds.8 mph88%30.01 "HgN/A
6:20 AM52 °FPassing clouds.6 mph88%29.98 "HgN/A
5:50 AM52 °FPassing clouds.7 mph88%29.98 "HgN/A
5:20 AM52 °FPassing clouds.6 mph88%29.98 "HgN/A
4:50 AM52 °FPassing clouds.6 mph88%29.98 "HgN/A
4:20 AM52 °FPassing clouds.5 mph88%29.98 "HgN/A
Weather by CustomWeather, © 2016

See weather overviewHow to use our weather pages